TimeEDT,TemperatureF,Dew PointF,Humidity,Sea Level PressureIn,VisibilityMPH,Wind Direction,Wind SpeedMPH,Gust SpeedMPH,PrecipitationIn,Events,Conditions,WindDirDegrees,DateUTC
12:00 AM,39.4,39.4,100,29.90,10.0,WNW,3.5,-,N/A,,Overcast,300,2013-03-19 04:00:00
12:20 AM,39.4,39.4,100,29.89,10.0,NNW,4.6,-,N/A,,Overcast,330,2013-03-19 04:20:00
12:40 AM,39.4,39.2,99,29.90,10.0,NW,8.1,-,N/A,,Overcast,320,2013-03-19 04:40:00
12:55 AM,39.4,39.2,99,29.89,10.0,NW,4.6,-,N/A,,Overcast,320,2013-03-19 04:55:00
1:20 AM,39.2,39.2,100,29.87,10.0,Calm,Calm,-,N/A,,Overcast,0,2013-03-19 05:20:00
1:40 AM,39.2,39.2,100,29.85,10.0,Calm,Calm,-,N/A,,Overcast,0,2013-03-19 05:40:00
2:00 AM,39.2,39.2,100,29.87,10.0,West,3.5,-,N/A,,Overcast,270,2013-03-19 06:00:00
2:20 AM,39.2,39.2,100,29.84,10.0,Calm,Calm,-,N/A,,Overcast,0,2013-03-19 06:20:00
3:00 AM,39.4,39.4,100,29.84,10.0,Calm,Calm,-,N/A,,Overcast,0,2013-03-19 07:00:00
3:20 AM,39.4,39.4,100,29.82,10.0,Calm,Calm,-,N/A,,Overcast,0,2013-03-19 07:20:00
3:40 AM,39.4,39.4,100,29.82,7.0,Calm,Calm,-,N/A,,Overcast,0,2013-03-19 07:40:00
4:00 AM,39.4,39.4,100,29.81,7.0,Calm,Calm,-,N/A,,Overcast,0,2013-03-19 08:00:00
4:20 AM,39.4,39.4,100,29.80,10.0,Calm,Calm,-,N/A,,Overcast,0,2013-03-19 08:20:00
5:00 AM,39.4,39.4,100,29.78,7.0,Calm,Calm,-,N/A,,Overcast,0,2013-03-19 09:00:00
5:20 AM,39.4,39.4,100,29.78,10.0,Calm,Calm,-,N/A,,Overcast,0,2013-03-19 09:20:00
5:40 AM,39.7,39.7,100,29.78,7.0,Calm,Calm,-,N/A,,Overcast,0,2013-03-19 09:40:00
6:00 AM,39.6,39.6,100,29.78,7.0,Calm,Calm,-,N/A,,Overcast,0,2013-03-19 10:00:00
6:20 AM,39.7,39.7,100,29.78,7.0,Calm,Calm,-,N/A,,Overcast,0,2013-03-19 10:20:00
6:40 AM,39.6,39.6,100,29.78,7.0,Calm,Calm,-,N/A,,Overcast,0,2013-03-19 10:40:00
7:00 AM,39.7,39.6,99,29.79,10.0,Calm,Calm,-,N/A,,Overcast,0,2013-03-19 11:00:00
7:20 AM,40.1,39.4,97,29.80,10.0,Calm,Calm,-,N/A,,Overcast,0,2013-03-19 11:20:00
7:40 AM,40.1,38.8,95,29.80,10.0,WNW,5.8,-,N/A,,Overcast,290,2013-03-19 11:40:00
8:00 AM,40.1,38.8,95,29.81,10.0,WNW,4.6,-,N/A,,Overcast,290,2013-03-19 12:00:00
8:20 AM,40.1,38.7,95,29.83,7.0,NW,3.5,-,N/A,,Overcast,310,2013-03-19 12:20:00
8:40 AM,39.7,38.5,95,29.82,5.0,WNW,4.6,-,N/A,,Overcast,300,2013-03-19 12:40:00
9:00 AM,40.1,38.7,95,29.83,5.0,West,3.5,-,N/A,,Overcast,270,2013-03-19 13:00:00
9:20 AM,40.1,38.5,94,29.82,5.0,Calm,Calm,-,N/A,,Overcast,0,2013-03-19 13:20:00
10:00 AM,42.6,39.0,87,29.82,7.0,NW,4.6,-,N/A,,Clear,310,2013-03-19 14:00:00
10:20 AM,44.8,39.7,82,29.81,10.0,NNW,9.2,-,N/A,,Clear,340,2013-03-19 14:20:00
10:40 AM,47.3,40.8,78,29.81,10.0,NW,8.1,-,N/A,,Scattered Clouds,310,2013-03-19 14:40:00
11:00 AM,48.6,41.0,75,29.81,10.0,NNW,8.1,-,N/A,,Scattered Clouds,340,2013-03-19 15:00:00
11:20 AM,50.2,41.2,71,29.81,10.0,WNW,5.8,-,N/A,,Scattered Clouds,300,2013-03-19 15:20:00
11:40 AM,50.9,39.7,66,29.81,10.0,NNW,8.1,-,N/A,,Clear,330,2013-03-19 15:40:00
12:00 PM,52.3,39.7,62,29.79,10.0,North,5.8,-,N/A,,Clear,350,2013-03-19 16:00:00
12:20 PM,54.0,39.4,58,29.78,10.0,North,5.8,-,N/A,,Clear,360,2013-03-19 16:20:00
12:40 PM,54.5,38.8,56,29.77,10.0,NW,5.8,-,N/A,,Clear,310,2013-03-19 16:40:00
1:00 PM,55.6,37.6,51,29.77,10.0,West,8.1,-,N/A,,Scattered Clouds,260,2013-03-19 17:00:00
1:20 PM,56.3,36.7,48,29.77,10.0,West,8.1,-,N/A,,Scattered Clouds,260,2013-03-19 17:20:00
1:40 PM,56.3,33.4,42,29.77,10.0,West,9.2,20.7,N/A,,Scattered Clouds,260,2013-03-19 17:40:00
2:00 PM,56.8,34.3,43,29.76,10.0,West,6.9,21.9,N/A,,Scattered Clouds,270,2013-03-19 18:00:00
2:20 PM,57.7,35.6,44,29.74,10.0,West,10.4,18.4,N/A,,Clear,280,2013-03-19 18:20:00
2:40 PM,58.1,35.4,43,29.74,10.0,West,6.9,-,N/A,,Clear,270,2013-03-19 18:40:00
3:00 PM,59.0,36.7,43,29.73,10.0,SW,8.1,-,N/A,,Clear,230,2013-03-19 19:00:00
3:20 PM,59.2,36.5,43,29.72,10.0,West,9.2,-,N/A,,Scattered Clouds,280,2013-03-19 19:20:00
3:40 PM,58.3,36.7,45,29.71,10.0,WSW,3.5,-,N/A,,Mostly Cloudy,250,2013-03-19 19:40:00
4:00 PM,60.4,37.6,43,29.71,10.0,West,8.1,-,N/A,,Mostly Cloudy,260,2013-03-19 20:00:00
4:20 PM,60.1,36.9,42,29.72,10.0,West,11.5,-,N/A,,Scattered Clouds,260,2013-03-19 20:20:00
4:40 PM,61.5,35.4,38,29.72,10.0,WSW,11.5,17.3,N/A,,Scattered Clouds,240,2013-03-19 20:40:00
4:55 PM,61.0,34.3,37,29.72,10.0,West,9.2,17.3,N/A,,Scattered Clouds,270,2013-03-19 20:55:00
5:20 PM,60.3,32.5,35,29.72,10.0,West,9.2,20.7,N/A,,Overcast,280,2013-03-19 21:20:00
5:40 PM,59.4,26.6,29,29.74,10.0,West,9.2,19.6,N/A,,Mostly Cloudy,280,2013-03-19 21:40:00
6:00 PM,60.4,24.1,25,29.74,10.0,West,13.8,20.7,N/A,,Mostly Cloudy,280,2013-03-19 22:00:00
6:20 PM,60.4,20.3,21,29.75,10.0,West,12.7,24.2,N/A,,Scattered Clouds,270,2013-03-19 22:20:00
6:40 PM,59.5,16.2,18,29.76,10.0,West,11.5,21.9,N/A,,Clear,260,2013-03-19 22:40:00
7:00 PM,58.5,13.8,17,29.77,10.0,West,17.3,29.9,N/A,,Clear,270,2013-03-19 23:00:00
7:20 PM,57.2,15.6,20,29.79,10.0,WNW,10.4,21.9,N/A,,Clear,300,2013-03-19 23:20:00
7:40 PM,55.6,13.8,19,29.80,10.0,WNW,13.8,26.5,N/A,,Clear,290,2013-03-19 23:40:00
8:00 PM,54.7,12.4,19,29.82,10.0,West,12.7,21.9,N/A,,Clear,280,2013-03-20 00:00:00
8:20 PM,54.1,11.5,18,29.82,10.0,WNW,8.1,20.7,N/A,,Clear,290,2013-03-20 00:20:00
8:40 PM,53.1,11.1,19,29.84,10.0,West,10.4,19.6,N/A,,Clear,280,2013-03-20 00:40:00
9:00 PM,52.7,10.8,19,29.85,10.0,WNW,9.2,25.3,N/A,,Clear,290,2013-03-20 01:00:00
9:20 PM,52.0,10.9,19,29.85,10.0,West,12.7,23.0,N/A,,Clear,280,2013-03-20 01:20:00
9:40 PM,51.6,10.9,20,29.86,10.0,West,10.4,21.9,N/A,,Clear,280,2013-03-20 01:40:00
10:00 PM,51.1,11.3,20,29.86,10.0,West,11.5,21.9,N/A,,Clear,280,2013-03-20 02:00:00
10:15 PM,50.9,11.7,21,29.87,10.0,West,11.5,18.4,N/A,,Clear,280,2013-03-20 02:15:00
10:40 PM,50.0,12.6,22,29.89,10.0,WNW,12.7,18.4,N/A,,Clear,290,2013-03-20 02:40:00
11:00 PM,49.1,13.3,24,29.89,10.0,WNW,9.2,19.6,N/A,,Clear,290,2013-03-20 03:00:00
11:20 PM,48.4,13.3,24,29.90,10.0,West,10.4,17.3,N/A,,Clear,280,2013-03-20 03:20:00
11:40 PM,48.0,13.3,25,29.91,10.0,West,6.9,-,N/A,,Clear,260,2013-03-20 03:40:00